Location: American Medical Response
(33.3472°N, 96.5511°W)
Time: 06:49:50
(UTC+00:00)

SKYMED 2 - Pass Details

Date: 08 December 2021
Orbit: 621 x 623 km, 97.9° (Epoch: 17 January)

Event Time Altitude Azimuth Distance (km) Brightness Sun altitude
Rises 12:24:31 0° 190° (S) 2,888 7.1 -11.0°
Reaches altitude 10° 12:26:55 10° 202° (SSW) 1,986 6.2 -10.6°
Maximum altitude 12:30:42 29° 263° (W) 1,140 4.4 -9.8°
Drops below altitude 10° 12:34:30 10° 324° (NW) 1,998 5.7 -9.1°
Enters shadow 12:35:47 - 331° (NNW) 2,467 6.2 -8.8°
